Home > Weather > Gänserndorf > Past weeks

Flag for Austria Weather for the Past 2 Weeks in Gänserndorf, Lower Austria, Austria

Now
47 °F

Partly sunny.


Feels Like: 43 °F
Forecast: 38 / 56 °F
Wind: 7 mph from Southeast

Location: Wien / Schwechat-Flughafen

Current Time: Feb 6, 2016 at 4:39:35 PM

Latest Report: Feb 6, 2016 at 4:00 PM


Visibility: 25 mi

Pressure: 30.17 "Hg

Humidity: 66%

Dew point: 36 °F

Location of GänserndorfLocation

Historic Weather in Gänserndorf — Graph

°F

Gänserndorf Temperature Yesterday

Maximum temperature yesterday: 44 °F (at 3:00 PM)
Minimum temperature yesterday: 36 °F (at 10:00 PM)
Average temperature yesterday: 40 °F

High & Low Weather Summary for the Past Weeks

 TemperatureHumidityPressure
High62 °F (Jan 28, 1:00 PM)100% (Jan 25, 10:00 AM)30.60 "Hg (Jan 25, 10:00 AM)
Low19 °F (Jan 22, 9:00 PM)39% (Jan 28, 1:00 PM)29.84 "Hg (Jan 31, 4:00 AM)
Average40 °F82%30.27 "Hg
* Reported Jan 22 3:00 PM — Feb 6 3:00 PM, Gänserndorf, Weather by CustomWeather, © 2016

Note: Actual official high and low records may vary slightly from our data, if they occured in-between our weather recording intervals... More about our weather records

Advertising

Gänserndorf Weather History for the Previous 24 Hours

 ConditionsComfort  
Time TempWeatherWind HumidityBarometerVisibility
3:00 PM
Sat, Feb 6
47 °FPartly sunny.8 mph64%30.19 "Hg18 mi
2:00 PM48 °FScattered clouds.9 mph62%30.19 "Hg16 mi
1:00 PM47 °FPassing clouds.8 mph64%30.22 "Hg17 mi
12:00 PM44 °FPassing clouds.8 mph66%30.24 "Hg17 mi
11:00 AM40 °FPassing clouds.7 mph75%30.28 "Hg14 mi
10:00 AM39 °FPassing clouds.5 mph75%30.30 "Hg14 mi
9:00 AM36 °FPassing clouds.3 mph79%30.31 "Hg22 mi
8:00 AM33 °FPassing clouds.N/A89%30.31 "Hg16 mi
7:00 AM33 °FPassing clouds.N/A92%30.31 "Hg11 mi
6:00 AM33 °FPassing clouds.N/A89%30.31 "Hg9 mi
5:00 AM32 °FPassing clouds.N/A91%30.32 "Hg19 mi
4:00 AM33 °FPassing clouds.N/A92%30.31 "Hg13 mi
3:00 AM35 °FPassing clouds.N/A89%30.32 "Hg10 mi
12:00 AM37 °FLight rain. Overcast.N/A87%30.37 "Hg11 mi
11:00 PM
Fri, Feb 5
38 °FLight rain. Overcast.N/A80%30.37 "Hg11 mi
10:00 PM36 °FOvercast.3 mph83%30.37 "Hg12 mi
9:00 PM36 °FPassing clouds.5 mph79%30.38 "Hg19 mi
8:00 PM36 °FPassing clouds.5 mph77%30.39 "Hg25 mi
7:00 PM41 °FPassing clouds.N/A67%30.38 "Hg28 mi
6:00 PM39 °FPassing clouds.N/A70%30.38 "Hg28 mi
5:00 PM40 °FPassing clouds.N/A70%30.36 "Hg28 mi
4:00 PM42 °FPartly sunny.N/A61%30.36 "Hg28 mi
Weather by CustomWeather, © 2016

See weather overviewHow to use our weather pages